Location: Geçitköy
(36.7327°N, 29.8010°E)
Time: 20:09:49
(UTC+00:00)

Cosmos 2218 Rocket - Pass Details

Date: 12 January 2026
Orbit: 955 x 1005 km, 82.9° (Epoch: 10 February)

Event Time Altitude Azimuth Distance (km) Brightness Sun altitude
Rises 16:01:48 0° 356° (N) 3,739 6.9 -11.3°
Reaches altitude 10° 16:04:23 10° 359° (N) 2,786 6.2 -11.8°
Maximum altitude 16:10:45 66° 82° (E) 1,088 4.0 -13.0°
Drops below altitude 10° 16:17:03 10° 164° (SSE) 2,757 6.4 -14.2°
Sets 16:19:35 0° 167° (SSE) 3,697 7.1 -14.7°
